Simultaneous Nadir Overpasses (SNOs) Predictions

Prediction of SNOs between LANDSAT-8 and METOP-B Satellite Orbit:

Table of predicted SNOs for the next 14.0 days since TLE Epoch: 9/10/2022
Index Date (LANDSAT-8) Time (LANDSAT-8) Lat,Lon (LANDSAT-8) SZA (LANDSAT-8 ) Date (METOP-B) Time (METOP-B) Lat,Lon (METOP-B) SZA (METOP-B ) Distance(km) Time Diff (sec)
1 09/10/2022 15:52:35 81.17, -17.30 78.63 09/10/2022 15:52:18 81.18, -17.21 78.64 1.77 17
2 09/10/2022 16:42:01 -81.19, 150.63 101.32 09/10/2022 16:42:57 -81.20, 150.72 101.28 1.74 56
3 09/13/2022 11:26:50 81.18, 49.30 79.75 09/13/2022 11:26:37 81.18, 49.21 79.73 1.59 13
4 09/13/2022 12:16:16 -81.20,-142.74 100.20 09/13/2022 12:17:16 -81.20,-142.83 100.18 1.65 60
5 09/16/2022 07:01:06 81.19, 115.82 80.86 09/16/2022 07:00:56 81.19, 115.98 80.88 2.71 10
6 09/16/2022 07:50:32 -81.21, -76.20 99.08 09/16/2022 07:51:35 -81.21, -76.04 99.03 2.67 63
7 09/19/2022 02:35:22 81.19,-177.76 81.97 09/19/2022 02:35:16 81.19,-177.68 81.98 1.32 6
8 09/19/2022 03:24:48 -81.21, -9.75 97.97 09/19/2022 03:25:55 -81.21, -9.67 97.93 1.37 67
9 09/21/2022 22:09:37 81.18,-111.43 83.07 09/21/2022 22:09:35 81.18,-111.38 83.08 0.95 2



Historial Predications of SNOs between LANDSAT-8 and METOP-B
